Regional Weather Roundup
Issued by NWS

Home | Current Version | Previous Version | Text Only | Print | Product List | Glossary On
Versions: 1 2 3 4 5 6 7 8 9 10 11 12 13 14 15 16 17 18 19 20 21 22 23 24 25 26 27 28 29 30 31 32 33 34 35 36 37 38 39 40 41 42 43 44 45 46 47 48 49 50
000
ASUS43 KDTX 041001
RWRMI
MICHIGAN HOURLY REGIONAL WEATHER ROUNDUP
NATIONAL WEATHER SERVICE DETROIT/PONTIAC MI
600 AM EDT SAT JUL 04 2015

NOTE: "FAIR" INDICATES FEW OR NO CLOUDS BELOW 12,000 FEET WITH NO
SIGNIFICANT WEATHER AND/OR OBSTRUCTION TO VISIBILITY.

MIZ047>049-052>055-059>063-066>070-074>076-081>083-041100-
SOUTHEAST LOWER MICHIGAN

CITY           SKY/WX    TMP DP  RH WIND       PRES   REMARKS
ADRIAN         CLEAR     54  52  93 CALM      29.95S
ALMA           CLEAR     51  50  99 CALM      29.95S
ANN ARBOR      FOG       47  46  97 CALM      29.95R VSB 3/4
BAD AXE        PTCLDY    51  49  93 CALM      29.95R
CARO           PTCLDY    47  46  97 CALM      29.94R
DETROIT CITY   CLEAR     58  52  80 NW3       29.93S
DETROIT        PTCLDY    57  52  83 CALM      29.94S
FLINT          CLEAR     52  48  86 W3        29.95R
GROSSE ILE     CLEAR     57  54  88 CALM      29.93R
HILLSDALE        N/A     54  54 100 CALM      29.96S FOG
HOWELL         CLEAR     53  52  95 CALM      29.95S

CITY           SKY/WX    TMP DP  RH WIND       PRES   REMARKS
JACKSON        CLEAR     52  50  93 CALM      29.95S
LAMBERTVILLE     N/A     55  52  90 CALM      29.94S FOG
LANSING        CLEAR     53  50  89 CALM      29.96R FOG
LAPEER           N/A     46  45  96 CALM      29.95R FOG
MASON          CLEAR     50  49  97 CALM      29.95S FOG
MONROE         CLEAR     55  53  95 CALM      29.93R
MT. CLEMENS    CLEAR     54  53  95 CALM      29.91S
PONTIAC        CLEAR     51  50  96 CALM      29.94R FOG
PORT HOPE        N/A     59  52  77 VRB5      29.92R
PORT HURON     CLEAR     48  48 100 CALM      29.93S FOG
TRI CITIES     PTCLDY    58  50  75 SW3       29.95R
MIDLAND        FAIR      51  49  95 CALM      29.94R
TROY           CLEAR     59  53  80 CALM      29.95S
SAGINAW HB     MOCLDY    54  54 100 CALM      29.94R
$$
MIZ043>046-050>051-056>058-064>065-071>073-077>080-041100-
SOUTHWEST LOWER MICHIGAN

CITY           SKY/WX    TMP DP  RH WIND       PRES   REMARKS
BATTLE CREEK   CLEAR     55  52  89 CALM      29.96S
BENTON HARBOR  CLEAR     50  48  93 CALM      29.96R FOG
BIG RAPIDS     PTCLDY    52  49  89 CALM      29.95S
COLDWATER      CLEAR     53  53  99 CALM      29.96R FOG
FREMONT        MOCLDY    54  53  97 CALM      29.95S
HOLLAND        CLEAR     53  50  89 W3        29.97R
GRAND RAPIDS   CLEAR     57  51  80 CALM      29.96R
IONIA          FAIR      56  54  95 CALM      29.95R
KALAMAZOO      CLEAR     55  52  89 CALM      29.97R
LUDINGTON      CLEAR     61  53  76 SW6       29.93S
MARSHALL       CLEAR     52  51  97 CALM      29.95S FOG
MOUNT PLEASANT PTCLDY    52  50  95 CALM      29.94S FOG
MUSKEGON       PTCLDY    53  49  86 CALM      29.96R
SOUTH HAVEN    CLEAR     50  49  95 CALM      29.96S FOG
$$
MIZ016>042-041100-
NORTHERN LOWER MICHIGAN

CITY           SKY/WX    TMP DP  RH WIND       PRES   REMARKS
ALPENA         CLOUDY    60  53  77 CALM      29.92R
BEAVER ISLAND  CLEAR     52  50  93 W3        29.92R
BELLAIRE       PTCLDY    54  52  92 CALM      29.92S
CADILLAC       PTCLDY    55  50  83 CALM      29.94R
CHARLEVOIX     CLEAR     56  51  81 CALM      29.94S
FRANKFORT      CLEAR     61  47  61 CALM      29.92R
GAYLORD        CLEAR     57  50  77 W5        29.93R
GRAYLING       PTCLDY    52  50  92 CALM      29.94S
HARBOR SPRINGS CLEAR     55  50  86 CALM      29.92R
HOUGHTON LAKE  MOCLDY    61  51  70 SW6       29.95R
MANISTEE       CLEAR     52  46  82 E3        29.94R
OSCODA         MOCLDY    56  48  75 W5        29.92R
PELLSTON       CLEAR     52  50  93 N3        29.91S
ROGERS CITY    CLEAR     56  53  92 CALM      29.92R
TRAVERSE CITY  MOCLDY    63  48  58 CALM      29.90R
$$
MIZ007>008-015-041100-
EASTERN UPPER MICHIGAN

CITY           SKY/WX    TMP DP  RH WIND       PRES   REMARKS
KINROSS        CLEAR     52  48  87 W5        29.91R
MACKINAC ISLAN CLEAR     56  51  84 W7        29.90S
NEWBERRY       FOG       50  49  99 CALM      29.91R VSB 1/4
S. S. MARIE    CLEAR     52  48  86 CALM      29.90R
$$
MIZ004>006-011>014-085-041100-
CENTRAL UPPER MICHIGAN

CITY           SKY/WX    TMP DP  RH WIND       PRES   REMARKS
MANISTIQUE     FOG       49  48  97 CALM      29.91R VSB<1/4
ESCANABA       CLEAR     57  55  94 NE5       29.92R
MENOMINEE      CLEAR     57  54  88 N3        29.91R
SAWYER-GWINN   CLEAR     53  51  95 N3        29.94S FOG
$$
MIZ001>003-009>011-084-041100-
WESTERN UPPER MICHIGAN

CITY           SKY/WX    TMP DP  RH WIND       PRES   REMARKS
IRON MOUNTAIN  CLEAR     58  56  93 N3        29.93R FOG
HOUGHTON       CLEAR     51  49  92 CALM      29.93R FOG
COPPER HARBOR    N/A     53  51  93 CALM      29.93R
IRONWOOD       MOCLDY    52  50  93 CALM      29.92R VSB 1/2
$$

ABBREVIATIONS USED IN REMARKS
   TC - TEMPERATURE IN CELSIUS
  WCI - WIND CHILL INDEX
   HX - HEAT INDEX
  VSB - VISIBILITY



USA.gov is the U.S. government's official web portal to all federal, state and local government web resources and services.